User: anonymous   Login
Location: Unspecified
(0.0000°N, 0.0000°E)
Time: 10:15:19
(UTC+00:00)
Language:

CANX 3A (UNIBRITE) - Orbit

View from above orbital plane
View from above orbital plane
View from above satellite
View from above satellite

Ground track
Ground track

The orbit data is extracted from the following two-line orbital elements,

1 39092U 13009G   20088.83838716  .00000003  00000-0  16139-4 0  9995
2 39092  98.4652 293.4683 0009751 159.1263 201.0322 14.35012255371136
Epoch (UTC): 28 March 2020 20:07:16
Eccentricity: 0.0009751
inclination: 98.4652°
perigee height: 768 km
apogee height: 782 km
right ascension of ascending node: 293.4683°
argument of perigee: 159.1263°
revolutions per day: 14.35012255
mean anomaly at epoch: 201.0322°
orbit number at epoch: 37113

The dashed part of the orbit path shows where the satellite is in the earth's shadow,  

DLR